TimePST,TemperatureF,Dew PointF,Humidity,Sea Level PressureIn,VisibilityMPH,Wind Direction,Wind SpeedMPH,Gust SpeedMPH,PrecipitationIn,Events,Conditions,WindDirDegrees,DateUTC
12:00 AM,44.6,37.4,76,29.56,40.0,West,8.1,-,N/A,,Mostly Cloudy,270,2012-11-20 08:00:00
1:00 AM,42.8,35.6,76,29.60,40.0,West,8.1,-,N/A,,Partly Cloudy,270,2012-11-20 09:00:00
2:00 AM,42.8,35.6,76,29.65,40.0,West,5.8,-,N/A,,Scattered Clouds,260,2012-11-20 10:00:00
3:00 AM,41.0,35.6,81,29.67,40.0,SW,4.6,-,N/A,,Partly Cloudy,230,2012-11-20 11:00:00
4:00 AM,38,33,77,29.68,37,NW,3.5,,,,Scattered Clouds,310,2012-11-20 12:00:00
4:00 AM,37.4,33.8,87,29.68,40.0,WNW,2.3,-,N/A,,Partly Cloudy,300,2012-11-20 12:00:00
5:00 AM,41.0,33.8,76,29.69,40.0,Calm,Calm,-,N/A,,Partly Cloudy,0,2012-11-20 13:00:00
6:00 AM,39.2,35.6,87,29.70,40.0,ESE,5.8,-,N/A,,Partly Cloudy,120,2012-11-20 14:00:00
7:00 AM,39.2,35.6,87,29.70,40.0,ESE,12.7,-,N/A,,Mostly Cloudy,110,2012-11-20 15:00:00
8:00 AM,41.0,35.6,81,29.70,40.0,ESE,15.0,-,N/A,,Mostly Cloudy,110,2012-11-20 16:00:00
9:00 AM,39.2,35.6,87,29.69,40.0,East,10.4,-,N/A,,Scattered Clouds,100,2012-11-20 17:00:00
10:00 AM,41,36,78,29.67,37,ESE,11.5,,,,Mostly Cloudy,110,2012-11-20 18:00:00
10:00 AM,41.0,37.4,87,29.67,40.0,ESE,11.5,-,N/A,,Mostly Cloudy,110,2012-11-20 18:00:00
11:00 AM,42.8,37.4,81,29.65,40.0,East,10.4,-,N/A,,Mostly Cloudy,90,2012-11-20 19:00:00
12:00 PM,46.4,37.4,71,29.61,40.0,East,8.1,-,N/A,,Mostly Cloudy,100,2012-11-20 20:00:00
1:00 PM,44.6,39.2,81,29.59,40.0,East,8.1,-,N/A,,Overcast,100,2012-11-20 21:00:00
2:00 PM,46.4,37.4,71,29.55,40.0,ESE,8.1,-,N/A,,Overcast,110,2012-11-20 22:00:00
3:00 PM,46.4,39.2,76,29.53,40.0,ESE,10.4,-,N/A,,Overcast,110,2012-11-20 23:00:00
3:50 PM,-9999,-9999,N/A,-9999,35.0,East,8.1,-,N/A,Rain,Light Rain Showers,90,2012-11-20 23:50:00
4:00 PM,46,41,75,29.53,34,East,8.1,,,Rain,Light Rain Showers,80,2012-11-21 00:00:00
4:00 PM,46.4,41.0,81,29.53,35.0,East,8.1,-,N/A,Rain,Light Rain Showers,80,2012-11-21 00:00:00
4:22 PM,-9999,-9999,N/A,-9999,40.0,ENE,9.2,-,N/A,,Mostly Cloudy,70,2012-11-21 00:22:00
5:00 PM,46.4,41.0,81,29.54,40.0,East,10.4,-,N/A,,Mostly Cloudy,100,2012-11-21 01:00:00
6:00 PM,44.6,39.2,81,29.55,40.0,East,16.1,21.9,N/A,,Mostly Cloudy,90,2012-11-21 02:00:00
7:00 PM,46.4,35.6,66,29.55,40.0,SE,11.5,17.3,N/A,,Mostly Cloudy,140,2012-11-21 03:00:00
8:00 PM,41.0,33.8,76,29.57,40.0,ENE,8.1,-,N/A,,Partly Cloudy,70,2012-11-21 04:00:00
9:00 PM,41.0,33.8,76,29.59,40.0,NE,9.2,-,N/A,,Partly Cloudy,50,2012-11-21 05:00:00
10:00 PM,42,36,72,29.61,37,East,11.5,,,,Partly Cloudy,80,2012-11-21 06:00:00
10:00 PM,42.8,35.6,76,29.61,40.0,East,13.8,-,N/A,,Partly Cloudy,90,2012-11-21 06:00:00
11:00 PM,41.0,35.6,81,29.62,40.0,East,17.3,-,N/A,,Scattered Clouds,90,2012-11-21 07:00:00